| time (UTC) | temp F | wind direction | speed MPH | gust MPH | rain 1hr in | rain 24hr in | rain mn in | humidity % | barometer mb |
| 20260901222538 | 97 | 360 | 3.0 | 0.0 | 0.00 | 0.00 | 0.00 | 9 | 1002.4 |
| 20260901222021 | 96 | 360 | 2.0 | 0.0 | 0.00 | 0.00 | 0.00 | 9 | 1002.4 |
| 20260901221604 | 97 | 360 | 3.0 | 0.0 | 0.00 | 0.00 | 0.00 | 9 | 1002.4 |
| 20260901221044 | 97 | 360 | 3.0 | 0.0 | 0.00 | 0.00 | 0.00 | 9 | 1002.5 |
| 20260901220523 | 97 | 360 | 3.0 | 0.0 | 0.00 | 0.00 | 0.00 | 9 | 1002.4 |
| 20260901220001 | 97 | 360 | 2.0 | 0.0 | 0.00 | 0.00 | 0.00 | 9 | 1002.5 |
| 20260901215547 | 97 | 360 | 2.0 | 0.0 | 0.00 | 0.00 | 0.00 | 9 | 1002.6 |
| 20260901215026 | 97 | 360 | 3.0 | 0.0 | 0.00 | 0.00 | 0.00 | 9 | 1002.7 |
| 20260901214509 | 97 | 360 | 3.0 | 0.0 | 0.00 | 0.00 | 0.00 | 9 | 1002.5 |
| 20260901214056 | 98 | 360 | 2.0 | 0.0 | 0.00 | 0.00 | 0.00 | 9 | 1002.4 |
| 20260901213541 | 97 | 360 | 2.0 | 0.0 | 0.00 | 0.00 | 0.00 | 9 | 1002.6 |
| 20260901213020 | 96 | 360 | 2.0 | 0.0 | 0.00 | 0.00 | 0.00 | 9 | 1002.8 |
| 20260901212602 | 96 | 360 | 2.0 | 0.0 | 0.00 | 0.00 | 0.00 | 9 | 1002.8 |
| 20260901212042 | 96 | 360 | 3.0 | 0.0 | 0.00 | 0.00 | 0.00 | 8 | 1003.1 |
| 20260901211522 | 97 | 360 | 3.0 | 0.0 | 0.00 | 0.00 | 0.00 | 8 | 1003.0 |
| 20260901211001 | 97 | 360 | 2.0 | 0.0 | 0.00 | 0.00 | 0.00 | 10 | 1002.9 |
| 20260901210548 | 96 | 360 | 2.0 | 0.0 | 0.00 | 0.00 | 0.00 | 10 | 1003.3 |
| 20260901210031 | 96 | 360 | 2.0 | 0.0 | 0.00 | 0.00 | 0.00 | 10 | 1003.4 |
| 20260901205513 | 96 | 360 | 2.0 | 0.0 | 0.00 | 0.00 | 0.00 | 10 | 1003.4 |
| 20260901205059 | 95 | 360 | 2.0 | 0.0 | 0.00 | 0.00 | 0.00 | 11 | 1003.5 |
| 20260901204544 | 96 | 360 | 2.0 | 0.0 | 0.00 | 0.00 | 0.00 | 10 | 1003.5 |
| 20260901204013 | 96 | 360 | 2.0 | 0.0 | 0.00 | 0.00 | 0.00 | 10 | 1003.9 |
| 20260901203557 | 95 | 360 | 3.0 | 0.0 | 0.00 | 0.00 | 0.00 | 10 | 1003.9 |
| 20260901203039 | 95 | 360 | 3.0 | 0.0 | 0.00 | 0.00 | 0.00 | 10 | 1003.9 |
| 20260901202518 | 95 | 360 | 3.0 | 0.0 | 0.00 | 0.00 | 0.00 | 10 | 1004.0 |
| 20260901202101 | 95 | 360 | 3.0 | 0.0 | 0.00 | 0.00 | 0.00 | 9 | 1004.1 |
| 20260901201546 | 95 | 360 | 2.0 | 0.0 | 0.00 | 0.00 | 0.00 | 10 | 1004.0 |
| 20260901201025 | 96 | 360 | 2.0 | 0.0 | 0.00 | 0.00 | 0.00 | 10 | 1004.1 |
| 20260901200508 | 95 | 360 | 2.0 | 0.0 | 0.00 | 0.00 | 0.00 | 10 | 1004.1 |
| 20260901200052 | 95 | 360 | 2.0 | 0.0 | 0.00 | 0.00 | 0.00 | 10 | 1004.3 |
| 20260901195531 | 95 | 360 | 2.0 | 0.0 | 0.00 | 0.00 | 0.00 | 10 | 1004.1 |
| 20260901195008 | 95 | 360 | 2.0 | 0.0 | 0.00 | 0.00 | 0.00 | 12 | 1004.2 |
| 20260901194552 | 95 | 360 | 2.0 | 0.0 | 0.00 | 0.00 | 0.00 | 11 | 1004.3 |
| 20260901194030 | 95 | 360 | 2.0 | 0.0 | 0.00 | 0.00 | 0.00 | 13 | 1004.2 |
| 20260901193511 | 93 | 360 | 2.0 | 0.0 | 0.00 | 0.00 | 0.00 | 16 | 1004.4 |
| 20260901193111 | 94 | 360 | 3.0 | 0.0 | 0.00 | 0.00 | 0.00 | 16 | 1004.3 |
| 20260901192535 | 93 | 360 | 2.0 | 0.0 | 0.00 | 0.00 | 0.00 | 16 | 1004.5 |
| 20260901192014 | 93 | 360 | 2.0 | 0.0 | 0.00 | 0.00 | 0.00 | 17 | 1004.7 |
| 20260901191556 | 92 | 360 | 2.0 | 0.0 | 0.00 | 0.00 | 0.00 | 18 | 1004.9 |
| 20260901191040 | 93 | 360 | 2.0 | 0.0 | 0.00 | 0.00 | 0.00 | 17 | 1004.8 |
| 20260901190517 | 92 | 360 | 2.0 | 0.0 | 0.00 | 0.00 | 0.00 | 18 | 1004.7 |
| 20260901190110 | 92 | 360 | 2.0 | 0.0 | 0.00 | 0.00 | 0.00 | 18 | 1004.8 |
| 20260901185536 | 93 | 360 | 2.0 | 0.0 | 0.00 | 0.00 | 0.00 | 17 | 1004.7 |
| 20260901185014 | 92 | 360 | 2.0 | 0.0 | 0.00 | 0.00 | 0.00 | 17 | 1004.7 |
| 20260901184558 | 92 | 360 | 3.0 | 0.0 | 0.00 | 0.00 | 0.00 | 18 | 1004.8 |
| 20260901184036 | 92 | 360 | 2.0 | 0.0 | 0.00 | 0.00 | 0.00 | 18 | 1004.9 |
| 20260901183515 | 92 | 360 | 2.0 | 0.0 | 0.00 | 0.00 | 0.00 | 17 | 1004.9 |
| 20260901183056 | 92 | 360 | 2.0 | 0.0 | 0.00 | 0.00 | 0.00 | 17 | 1005.0 |
| 20260901182535 | 91 | 360 | 2.0 | 0.0 | 0.00 | 0.00 | 0.00 | 17 | 1005.0 |
| 20260901182016 | 91 | 360 | 2.0 | 0.0 | 0.00 | 0.00 | 0.00 | 18 | 1005.1 |
| 20260901181602 | 91 | 360 | 2.0 | 0.0 | 0.00 | 0.00 | 0.00 | 20 | 1005.0 |
| 20260901181035 | 91 | 360 | 2.0 | 0.0 | 0.00 | 0.00 | 0.00 | 19 | 1005.1 |
| 20260901180513 | 91 | 360 | 2.0 | 0.0 | 0.00 | 0.00 | 0.00 | 22 | 1005.2 |
| 20260901180059 | 90 | 360 | 2.0 | 0.0 | 0.00 | 0.00 | 0.00 | 22 | 1005.2 |
| 20260901175535 | 91 | 360 | 2.0 | 0.0 | 0.00 | 0.00 | 0.00 | 21 | 1005.2 |
| 20260901175014 | 90 | 360 | 2.0 | 0.0 | 0.00 | 0.00 | 0.00 | 21 | 1005.2 |
| 20260901174559 | 90 | 360 | 2.0 | 0.0 | 0.00 | 0.00 | 0.00 | 21 | 1005.3 |
| 20260901174039 | 90 | 360 | 2.0 | 0.0 | 0.00 | 0.00 | 0.00 | 20 | 1005.3 |
| 20260901173520 | 90 | 360 | 1.0 | 0.0 | 0.00 | 0.00 | 0.00 | 20 | 1005.3 |
| 20260901173059 | 90 | 360 | 2.0 | 0.0 | 0.00 | 0.00 | 0.00 | 18 | 1005.2 |
| 20260901172544 | 88 | 360 | 3.0 | 0.0 | 0.00 | 0.00 | 0.00 | 17 | 1005.7 |
| 20260901172018 | 86 | 360 | 4.0 | 0.0 | 0.00 | 0.00 | 0.00 | 17 | 1005.7 |
| 20260901171614 | 86 | 360 | 4.0 | 0.0 | 0.00 | 0.00 | 0.00 | 18 | 1005.7 |
| 20260901171045 | 86 | 360 | 4.0 | 0.0 | 0.00 | 0.00 | 0.00 | 20 | 1005.7 |
| 20260901170524 | 85 | 360 | 4.0 | 0.0 | 0.00 | 0.00 | 0.00 | 18 | 1005.7 |
| 20260901170003 | 85 | 360 | 4.0 | 0.0 | 0.00 | 0.00 | 0.00 | 18 | 1005.7 |
| 20260901165548 | 86 | 360 | 4.0 | 0.0 | 0.00 | 0.00 | 0.00 | 18 | 1005.6 |
| 20260901165024 | 86 | 360 | 4.0 | 0.0 | 0.00 | 0.00 | 0.00 | 17 | 1005.6 |
| 20260901164606 | 86 | 360 | 3.0 | 0.0 | 0.00 | 0.00 | 0.00 | 17 | 1005.6 |
| 20260901164052 | 85 | 360 | 4.0 | 0.0 | 0.00 | 0.00 | 0.00 | 18 | 1005.5 |
| 20260901163527 | 85 | 360 | 4.0 | 0.0 | 0.00 | 0.00 | 0.00 | 19 | 1005.7 |
| 20260901163009 | 84 | 360 | 4.0 | 0.0 | 0.00 | 0.00 | 0.00 | 19 | 1005.7 |
| 20260901162551 | 84 | 360 | 3.0 | 0.0 | 0.00 | 0.00 | 0.00 | 23 | 1005.7 |
| 20260901162025 | 84 | 360 | 3.0 | 0.0 | 0.00 | 0.00 | 0.00 | 25 | 1005.7 |
| 20260901161504 | 83 | 360 | 3.0 | 0.0 | 0.00 | 0.00 | 0.00 | 25 | 1005.7 |
| 20260901161050 | 84 | 360 | 3.0 | 0.0 | 0.00 | 0.00 | 0.00 | 23 | 1005.8 |
| 20260901160532 | 83 | 360 | 4.0 | 0.0 | 0.00 | 0.00 | 0.00 | 22 | 1005.7 |
| 20260901160013 | 83 | 360 | 4.0 | 0.0 | 0.00 | 0.00 | 0.00 | 22 | 1005.9 |
| 20260901155554 | 83 | 360 | 4.0 | 0.0 | 0.00 | 0.00 | 0.00 | 21 | 1005.8 |
| 20260901155032 | 83 | 360 | 4.0 | 0.0 | 0.00 | 0.00 | 0.00 | 21 | 1005.9 |
| 20260901154509 | 83 | 360 | 3.0 | 0.0 | 0.00 | 0.00 | 0.00 | 19 | 1005.8 |
| 20260901154056 | 83 | 360 | 3.0 | 0.0 | 0.00 | 0.00 | 0.00 | 20 | 1005.7 |
| 20260901153532 | 83 | 360 | 3.0 | 0.0 | 0.00 | 0.00 | 0.00 | 19 | 1005.7 |
| 20260901153012 | 82 | 360 | 3.0 | 0.0 | 0.00 | 0.00 | 0.00 | 21 | 1005.7 |
| 20260901152554 | 82 | 360 | 3.0 | 0.0 | 0.00 | 0.00 | 0.00 | 22 | 1005.6 |
| 20260901152031 | 81 | 360 | 3.0 | 0.0 | 0.00 | 0.00 | 0.00 | 23 | 1005.6 |
| 20260901151506 | 81 | 360 | 3.0 | 0.0 | 0.00 | 0.00 | 0.00 | 22 | 1005.8 |
| 20260901151049 | 81 | 360 | 3.0 | 0.0 | 0.00 | 0.00 | 0.00 | 24 | 1005.8 |
| 20260901150528 | 81 | 360 | 3.0 | 0.0 | 0.00 | 0.00 | 0.00 | 25 | 1005.8 |
| 20260901150010 | 80 | 360 | 3.0 | 0.0 | 0.00 | 0.00 | 0.00 | 24 | 1005.6 |
| 20260901145549 | 80 | 360 | 3.0 | 0.0 | 0.00 | 0.00 | 0.00 | 25 | 1005.6 |
| 20260901145029 | 80 | 360 | 3.0 | 0.0 | 0.00 | 0.00 | 0.00 | 26 | 1005.7 |
| 20260901144506 | 80 | 360 | 3.0 | 0.0 | 0.00 | 0.00 | 0.00 | 25 | 1005.6 |
| 20260901144048 | 79 | 360 | 3.0 | 0.0 | 0.00 | 0.00 | 0.00 | 26 | 1005.6 |
| 20260901143526 | 79 | 360 | 3.0 | 0.0 | 0.00 | 0.00 | 0.00 | 26 | 1005.6 |
| 20260901143004 | 78 | 360 | 2.0 | 0.0 | 0.00 | 0.00 | 0.00 | 26 | 1005.5 |
| 20260901142548 | 78 | 360 | 2.0 | 0.0 | 0.00 | 0.00 | 0.00 | 28 | 1005.6 |
| 20260901142029 | 77 | 360 | 2.0 | 0.0 | 0.00 | 0.00 | 0.00 | 30 | 1005.6 |
| 20260901141513 | 76 | 360 | 2.0 | 0.0 | 0.00 | 0.00 | 0.00 | 33 | 1005.5 |
| 20260901141057 | 76 | 360 | 1.0 | 0.0 | 0.00 | 0.00 | 0.00 | 34 | 1005.7 |
| 20260901140538 | 76 | 360 | 0.0 | 0.0 | 0.00 | 0.00 | 0.00 | 35 | 1005.6 |
| 20260901140018 | 75 | 360 | 0.0 | 0.0 | 0.00 | 0.00 | 0.00 | 37 | 1005.6 |
| 20260901135602 | 75 | 360 | 0.0 | 0.0 | 0.00 | 0.00 | 0.00 | 38 | 1005.3 |
| 20260901135045 | 74 | 360 | 0.0 | 0.0 | 0.00 | 0.00 | 0.00 | 42 | 1005.2 |
| 20260901134525 | 73 | 360 | 0.0 | 0.0 | 0.00 | 0.00 | 0.00 | 43 | 1005.2 |
| 20260901134004 | 73 | 360 | 0.0 | 0.0 | 0.00 | 0.00 | 0.00 | 45 | 1005.3 |
| 20260901133552 | 73 | 360 | 0.0 | 0.0 | 0.00 | 0.00 | 0.00 | 46 | 1005.3 |
| 20260901133032 | 72 | 360 | 0.0 | 0.0 | 0.00 | 0.00 | 0.00 | 46 | 1005.2 |
| 20260901132514 | 72 | 360 | 0.0 | 0.0 | 0.00 | 0.00 | 0.00 | 46 | 1005.3 |
| 20260901132054 | 72 | 360 | 0.0 | 0.0 | 0.00 | 0.00 | 0.00 | 45 | 1005.2 |
| 20260901131542 | 73 | 360 | 0.0 | 0.0 | 0.00 | 0.00 | 0.00 | 43 | 1005.2 |
| 20260901131022 | 73 | 360 | 0.0 | 0.0 | 0.00 | 0.00 | 0.00 | 42 | 1005.0 |
| 20260901130502 | 74 | 360 | 0.0 | 0.0 | 0.00 | 0.00 | 0.00 | 39 | 1005.0 |
| 20260901130045 | 74 | 360 | 0.0 | 0.0 | 0.00 | 0.00 | 0.00 | 38 | 1005.0 |
| 20260901125525 | 74 | 360 | 0.0 | 0.0 | 0.00 | 0.00 | 0.00 | 36 | 1004.7 |
| 20260901125004 | 74 | 360 | 0.0 | 0.0 | 0.00 | 0.00 | 0.00 | 38 | 1004.6 |
| 20260901124554 | 74 | 360 | 0.0 | 0.0 | 0.00 | 0.00 | 0.00 | 38 | 1004.5 |
| 20260901124027 | 74 | 360 | 0.0 | 0.0 | 0.00 | 0.00 | 0.00 | 37 | 1004.6 |
| 20260901123506 | 75 | 360 | 0.0 | 0.0 | 0.00 | 0.00 | 0.00 | 35 | 1004.5 |
| 20260901123052 | 75 | 360 | 0.0 | 0.0 | 0.00 | 0.00 | 0.00 | 33 | 1004.6 |
| 20260901122531 | 75 | 360 | 0.0 | 0.0 | 0.00 | 0.00 | 0.00 | 32 | 1004.5 |
| 20260901122009 | 75 | 360 | 1.0 | 0.0 | 0.00 | 0.00 | 0.00 | 31 | 1004.5 |
| 20260901121557 | 75 | 360 | 1.0 | 0.0 | 0.00 | 0.00 | 0.00 | 30 | 1004.5 |
| 20260901121035 | 75 | 360 | 0.0 | 0.0 | 0.00 | 0.00 | 0.00 | 30 | 1004.5 |
| 20260901120516 | 75 | 360 | 0.0 | 0.0 | 0.00 | 0.00 | 0.00 | 30 | 1004.5 |
| 20260901120100 | 75 | 360 | 0.0 | 0.0 | 0.00 | 0.00 | 0.00 | 31 | 1004.5 |
| 20260901115539 | 75 | 360 | 0.0 | 0.0 | 0.00 | 0.00 | 0.00 | 32 | 1004.3 |
| 20260901115020 | 75 | 360 | 0.0 | 0.0 | 0.00 | 0.00 | 0.00 | 32 | 1004.3 |
| 20260901114604 | 75 | 360 | 0.0 | 0.0 | 0.00 | 0.00 | 0.00 | 34 | 1004.3 |
| 20260901114040 | 75 | 360 | 0.0 | 0.0 | 0.00 | 0.00 | 0.00 | 35 | 1004.3 |
| 20260901113519 | 75 | 360 | 0.0 | 0.0 | 0.00 | 0.00 | 0.00 | 35 | 1004.3 |
| 20260901113111 | 75 | 360 | 0.0 | 0.0 | 0.00 | 0.00 | 0.00 | 35 | 1004.3 |
| 20260901112543 | 75 | 360 | 0.0 | 0.0 | 0.00 | 0.00 | 0.00 | 36 | 1004.1 |
| 20260901112023 | 75 | 360 | 0.0 | 0.0 | 0.00 | 0.00 | 0.00 | 36 | 1004.2 |
| 20260901111502 | 76 | 360 | 0.0 | 0.0 | 0.00 | 0.00 | 0.00 | 36 | 1004.1 |
| 20260901111045 | 76 | 360 | 1.0 | 0.0 | 0.00 | 0.00 | 0.00 | 36 | 1004.0 |
| 20260901110523 | 76 | 360 | 1.0 | 0.0 | 0.00 | 0.00 | 0.00 | 37 | 1004.0 |
| 20260901110005 | 76 | 360 | 0.0 | 0.0 | 0.00 | 0.00 | 0.00 | 37 | 1004.0 |
| 20260901105549 | 76 | 360 | 0.0 | 0.0 | 0.00 | 0.00 | 0.00 | 36 | 1003.8 |
| 20260901105033 | 76 | 360 | 0.0 | 0.0 | 0.00 | 0.00 | 0.00 | 36 | 1003.9 |
| 20260901104509 | 76 | 360 | 0.0 | 0.0 | 0.00 | 0.00 | 0.00 | 36 | 1003.8 |
| 20260901104052 | 76 | 360 | 0.0 | 0.0 | 0.00 | 0.00 | 0.00 | 35 | 1003.9 |
| 20260901103531 | 76 | 360 | 0.0 | 0.0 | 0.00 | 0.00 | 0.00 | 34 | 1003.8 |
| 20260901103015 | 77 | 360 | 0.0 | 0.0 | 0.00 | 0.00 | 0.00 | 33 | 1003.9 |
| 20260901102605 | 77 | 360 | 1.0 | 0.0 | 0.00 | 0.00 | 0.00 | 33 | 1003.8 |
| 20260901102044 | 77 | 360 | 1.0 | 0.0 | 0.00 | 0.00 | 0.00 | 32 | 1003.8 |
| 20260901101522 | 77 | 360 | 1.0 | 0.0 | 0.00 | 0.00 | 0.00 | 32 | 1003.8 |
| 20260901101006 | 78 | 360 | 1.0 | 0.0 | 0.00 | 0.00 | 0.00 | 31 | 1003.7 |
| 20260901100552 | 77 | 360 | 1.0 | 0.0 | 0.00 | 0.00 | 0.00 | 31 | 1003.6 |
| 20260901100037 | 77 | 360 | 0.0 | 0.0 | 0.00 | 0.00 | 0.00 | 28 | 1003.7 |
| 20260901095510 | 77 | 360 | 0.0 | 0.0 | 0.00 | 0.00 | 0.00 | 28 | 1003.6 |
| 20260901095055 | 77 | 360 | 0.0 | 0.0 | 0.00 | 0.00 | 0.00 | 29 | 1003.6 |
| 20260901094536 | 77 | 360 | 0.0 | 0.0 | 0.00 | 0.00 | 0.00 | 30 | 1003.6 |
| 20260901094018 | 78 | 360 | 1.0 | 0.0 | 0.00 | 0.00 | 0.00 | 31 | 1003.5 |
| 20260901093600 | 78 | 360 | 1.0 | 0.0 | 0.00 | 0.00 | 0.00 | 31 | 1003.3 |
| 20260901093039 | 78 | 360 | 1.0 | 0.0 | 0.00 | 0.00 | 0.00 | 33 | 1003.4 |
| 20260901092517 | 78 | 360 | 1.0 | 0.0 | 0.00 | 0.00 | 0.00 | 34 | 1003.3 |
| 20260901092100 | 78 | 360 | 1.0 | 0.0 | 0.00 | 0.00 | 0.00 | 35 | 1003.2 |
| 20260901091547 | 79 | 360 | 1.0 | 0.0 | 0.00 | 0.00 | 0.00 | 36 | 1003.2 |
| 20260901091019 | 79 | 360 | 1.0 | 0.0 | 0.00 | 0.00 | 0.00 | 37 | 1003.2 |
| 20260901090604 | 79 | 360 | 1.0 | 0.0 | 0.00 | 0.00 | 0.00 | 37 | 1003.2 |
| 20260901090043 | 79 | 360 | 1.0 | 0.0 | 0.00 | 0.00 | 0.00 | 37 | 1003.1 |
| 20260901085522 | 79 | 360 | 1.0 | 0.0 | 0.00 | 0.00 | 0.00 | 38 | 1003.2 |
| 20260901085002 | 79 | 360 | 2.0 | 0.0 | 0.00 | 0.00 | 0.00 | 38 | 1003.0 |
| 20260901084545 | 80 | 360 | 2.0 | 0.0 | 0.00 | 0.00 | 0.00 | 38 | 1003.1 |
| 20260901084027 | 80 | 360 | 1.0 | 0.0 | 0.00 | 0.00 | 0.00 | 38 | 1003.1 |
| 20260901083508 | 80 | 360 | 1.0 | 0.0 | 0.00 | 0.00 | 0.00 | 38 | 1003.0 |
| 20260901083052 | 80 | 360 | 2.0 | 0.0 | 0.00 | 0.00 | 0.00 | 38 | 1003.1 |
| 20260901082533 | 80 | 360 | 2.0 | 0.0 | 0.00 | 0.00 | 0.00 | 38 | 1003.0 |
| 20260901082012 | 80 | 360 | 2.0 | 0.0 | 0.00 | 0.00 | 0.00 | 39 | 1003.0 |
| 20260901081556 | 80 | 360 | 3.0 | 0.0 | 0.00 | 0.00 | 0.00 | 39 | 1003.0 |
| 20260901081035 | 80 | 360 | 2.0 | 0.0 | 0.00 | 0.00 | 0.00 | 39 | 1003.0 |
| 20260901080516 | 80 | 360 | 2.0 | 0.0 | 0.00 | 0.00 | 0.00 | 38 | 1003.0 |
| 20260901080057 | 81 | 360 | 3.0 | 0.0 | 0.00 | 0.00 | 0.00 | 37 | 1003.0 |
| 20260901075540 | 81 | 360 | 2.0 | 0.0 | 0.00 | 0.00 | 0.00 | 31 | 1003.1 |
| 20260901075019 | 81 | 360 | 2.0 | 0.0 | 0.00 | 0.00 | 0.00 | 26 | 1003.0 |
| 20260901074612 | 82 | 360 | 2.0 | 0.0 | 0.00 | 0.00 | 0.00 | 20 | 1003.1 |
| 20260901074039 | 83 | 360 | 1.0 | 0.0 | 0.00 | 0.00 | 0.00 | 17 | 1003.1 |
| 20260901073519 | 83 | 360 | 0.0 | 0.0 | 0.00 | 0.00 | 0.00 | 17 | 1002.9 |
| 20260901073102 | 83 | 360 | 0.0 | 0.0 | 0.00 | 0.00 | 0.00 | 16 | 1002.7 |
| 20260901072540 | 83 | 360 | 0.0 | 0.0 | 0.00 | 0.00 | 0.00 | 17 | 1002.7 |
| 20260901072018 | 83 | 360 | 0.0 | 0.0 | 0.00 | 0.00 | 0.00 | 18 | 1002.6 |
| 20260901071601 | 83 | 360 | 0.0 | 0.0 | 0.00 | 0.00 | 0.00 | 18 | 1002.7 |
| 20260901071038 | 83 | 360 | 0.0 | 0.0 | 0.00 | 0.00 | 0.00 | 18 | 1002.7 |
| 20260901070517 | 83 | 360 | 0.0 | 0.0 | 0.00 | 0.00 | 0.00 | 18 | 1002.6 |
| 20260901065539 | 84 | 360 | 2.0 | 0.0 | 0.00 | 0.00 | 0.00 | 17 | 1002.5 |
| 20260901065016 | 84 | 360 | 2.0 | 0.0 | 0.00 | 0.00 | 0.00 | 18 | 1002.5 |
| 20260901064502 | 85 | 360 | 1.0 | 0.0 | 0.00 | 0.00 | 0.00 | 19 | 1002.4 |
| 20260901064050 | 85 | 360 | 1.0 | 0.0 | 0.00 | 0.00 | 0.00 | 19 | 1002.3 |
| 20260901063529 | 85 | 360 | 1.0 | 0.0 | 0.00 | 0.00 | 0.00 | 21 | 1002.2 |
| 20260901063024 | 85 | 360 | 1.0 | 0.0 | 0.00 | 0.00 | 0.00 | 25 | 1002.2 |
| 20260901062553 | 85 | 360 | 1.0 | 0.0 | 0.00 | 0.00 | 0.00 | 30 | 1002.1 |
| 20260901062035 | 85 | 360 | 1.0 | 0.0 | 0.00 | 0.00 | 0.00 | 33 | 1001.9 |
| 20260901061515 | 85 | 360 | 2.0 | 0.0 | 0.00 | 0.00 | 0.00 | 34 | 1001.8 |
| 20260901061100 | 86 | 360 | 2.0 | 0.0 | 0.00 | 0.00 | 0.00 | 32 | 1001.7 |
| 20260901060544 | 86 | 360 | 1.0 | 0.0 | 0.00 | 0.00 | 0.00 | 32 | 1001.6 |
| 20260901060023 | 86 | 360 | 1.0 | 0.0 | 0.00 | 0.00 | 0.00 | 33 | 1001.6 |
| 20260901055506 | 86 | 360 | 1.0 | 0.0 | 0.00 | 0.00 | 0.00 | 32 | 1001.7 |
| 20260901055049 | 87 | 360 | 1.0 | 0.0 | 0.00 | 0.00 | 0.00 | 32 | 1001.8 |
| 20260901054534 | 87 | 360 | 1.0 | 0.0 | 0.00 | 0.00 | 0.00 | 32 | 1001.8 |
| 20260901054014 | 87 | 360 | 1.0 | 0.0 | 0.00 | 0.00 | 0.00 | 32 | 1001.8 |
| 20260901053558 | 87 | 360 | 1.0 | 0.0 | 0.00 | 0.00 | 0.00 | 31 | 1001.6 |
| 20260901053045 | 88 | 360 | 1.0 | 0.0 | 0.00 | 0.00 | 0.00 | 31 | 1001.5 |
| 20260901052522 | 88 | 360 | 1.0 | 0.0 | 0.00 | 0.00 | 0.00 | 31 | 1001.5 |
| 20260901052002 | 88 | 360 | 1.0 | 0.0 | 0.00 | 0.00 | 0.00 | 31 | 1001.5 |
| 20260901051548 | 88 | 360 | 2.0 | 0.0 | 0.00 | 0.00 | 0.00 | 31 | 1001.5 |
| 20260901051033 | 88 | 360 | 2.0 | 0.0 | 0.00 | 0.00 | 0.00 | 32 | 1001.5 |
| 20260901050510 | 88 | 360 | 1.0 | 0.0 | 0.00 | 0.00 | 0.00 | 32 | 1001.3 |
| 20260901050054 | 88 | 360 | 2.0 | 0.0 | 0.00 | 0.00 | 0.00 | 32 | 1001.3 |
| 20260901045538 | 88 | 360 | 1.0 | 0.0 | 0.00 | 0.00 | 0.00 | 33 | 1001.4 |
| 20260901045018 | 88 | 360 | 1.0 | 0.0 | 0.00 | 0.00 | 0.00 | 33 | 1001.4 |
| 20260901044604 | 88 | 360 | 1.0 | 0.0 | 0.00 | 0.00 | 0.00 | 33 | 1001.4 |
| 20260901044041 | 88 | 360 | 1.0 | 0.0 | 0.00 | 0.00 | 0.00 | 33 | 1001.4 |
| 20260901043520 | 88 | 360 | 2.0 | 0.0 | 0.00 | 0.00 | 0.00 | 33 | 1001.3 |
| 20260901043104 | 88 | 360 | 2.0 | 0.0 | 0.00 | 0.00 | 0.00 | 33 | 1001.2 |
| 20260901042544 | 89 | 360 | 2.0 | 0.0 | 0.00 | 0.00 | 0.00 | 34 | 1001.2 |
| 20260901042025 | 89 | 360 | 2.0 | 0.0 | 0.00 | 0.00 | 0.00 | 35 | 1001.1 |
| 20260901041504 | 89 | 360 | 2.0 | 0.0 | 0.00 | 0.00 | 0.00 | 34 | 1001.0 |
| 20260901041051 | 89 | 360 | 1.0 | 0.0 | 0.00 | 0.00 | 0.00 | 34 | 1000.9 |
| 20260901040530 | 89 | 360 | 1.0 | 0.0 | 0.00 | 0.00 | 0.00 | 34 | 1000.8 |
| 20260901040011 | 89 | 360 | 1.0 | 0.0 | 0.00 | 0.00 | 0.00 | 32 | 1000.6 |
| 20260901035554 | 89 | 360 | 1.0 | 0.0 | 0.00 | 0.00 | 0.00 | 29 | 1001.1 |
| 20260901035036 | 89 | 360 | 1.0 | 0.0 | 0.00 | 0.00 | 0.00 | 27 | 1001.2 |
| 20260901034527 | 89 | 360 | 1.0 | 0.0 | 0.00 | 0.00 | 0.00 | 19 | 1001.2 |
| 20260901034102 | 89 | 360 | 0.0 | 0.0 | 0.00 | 0.00 | 0.00 | 18 | 1001.1 |
| 20260901033541 | 90 | 360 | 0.0 | 0.0 | 0.00 | 0.00 | 0.00 | 19 | 1000.9 |
| 20260901033024 | 90 | 360 | 0.0 | 0.0 | 0.00 | 0.00 | 0.00 | 18 | 1000.8 |
| 20260901032504 | 90 | 360 | 0.0 | 0.0 | 0.00 | 0.00 | 0.00 | 18 | 1000.7 |
| 20260901032048 | 90 | 360 | 0.0 | 0.0 | 0.00 | 0.00 | 0.00 | 17 | 1000.5 |
| 20260901031532 | 91 | 360 | 1.0 | 0.0 | 0.00 | 0.00 | 0.00 | 17 | 1000.5 |
| 20260901031009 | 91 | 360 | 1.0 | 0.0 | 0.00 | 0.00 | 0.00 | 17 | 1000.4 |
| 20260901030553 | 91 | 360 | 1.0 | 0.0 | 0.00 | 0.00 | 0.00 | 17 | 1000.3 |
| 20260901030033 | 91 | 360 | 1.0 | 0.0 | 0.00 | 0.00 | 0.00 | 17 | 1000.3 |
| 20260901025516 | 91 | 360 | 1.0 | 0.0 | 0.00 | 0.00 | 0.00 | 17 | 1000.4 |
| 20260901025057 | 91 | 360 | 1.0 | 0.0 | 0.00 | 0.00 | 0.00 | 17 | 1000.5 |
| 20260901024536 | 91 | 360 | 1.0 | 0.0 | 0.00 | 0.00 | 0.00 | 16 | 1000.4 |
| 20260901024018 | 92 | 360 | 1.0 | 0.0 | 0.00 | 0.00 | 0.00 | 16 | 1000.4 |
| 20260901023558 | 92 | 360 | 1.0 | 0.0 | 0.00 | 0.00 | 0.00 | 16 | 1000.4 |
| 20260901023037 | 92 | 360 | 1.0 | 0.0 | 0.00 | 0.00 | 0.00 | 16 | 1000.4 |
| 20260901022521 | 92 | 360 | 1.0 | 0.0 | 0.00 | 0.00 | 0.00 | 16 | 1000.3 |
| 20260901022101 | 92 | 360 | 2.0 | 0.0 | 0.00 | 0.00 | 0.00 | 16 | 1000.3 |
| 20260901021541 | 93 | 360 | 2.0 | 0.0 | 0.00 | 0.00 | 0.00 | 16 | 1000.2 |
| 20260901021024 | 93 | 360 | 2.0 | 0.0 | 0.00 | 0.00 | 0.00 | 16 | 1000.1 |
| 20260901020505 | 93 | 360 | 2.0 | 0.0 | 0.00 | 0.00 | 0.00 | 16 | 1000.0 |
| 20260901020045 | 93 | 360 | 2.0 | 0.0 | 0.00 | 0.00 | 0.00 | 16 | 999.8 |
| 20260901015527 | 94 | 360 | 2.0 | 0.0 | 0.00 | 0.00 | 0.00 | 16 | 1000.0 |
| 20260901015015 | 94 | 360 | 2.0 | 0.0 | 0.00 | 0.00 | 0.00 | 15 | 1000.0 |
| 20260901014556 | 94 | 360 | 3.0 | 0.0 | 0.00 | 0.00 | 0.00 | 15 | 999.9 |
| 20260901014044 | 94 | 360 | 3.0 | 0.0 | 0.00 | 0.00 | 0.00 | 15 | 999.9 |
| 20260901013524 | 95 | 281 | 4.0 | 0.0 | 0.00 | 0.00 | 0.00 | 15 | 999.9 |
| 20260901013003 | 95 | 271 | 3.0 | 0.0 | 0.00 | 0.00 | 0.00 | 15 | 999.8 |
| 20260901012549 | 95 | 279 | 2.0 | 0.0 | 0.00 | 0.00 | 0.00 | 15 | 999.7 |
| 20260901012032 | 96 | 273 | 3.0 | 0.0 | 0.00 | 0.00 | 0.00 | 15 | 999.7 |
| 20260901011511 | 96 | 348 | 4.0 | 0.0 | 0.00 | 0.00 | 0.00 | 14 | 999.8 |
| 20260901011058 | 96 | 301 | 4.0 | 0.0 | 0.00 | 0.00 | 0.00 | 14 | 999.7 |
| 20260901010537 | 96 | 184 | 3.0 | 0.0 | 0.00 | 0.00 | 0.00 | 14 | 999.8 |
| 20260901010022 | 97 | 292 | 3.0 | 0.0 | 0.00 | 0.00 | 0.00 | 14 | 999.8 |
| 20260901005502 | 97 | 217 | 3.0 | 0.0 | 0.00 | 0.00 | 0.00 | 14 | 999.7 |
| 20260901005045 | 97 | 271 | 3.0 | 0.0 | 0.00 | 0.00 | 0.00 | 14 | 999.7 |
| 20260901004527 | 97 | 290 | 4.0 | 0.0 | 0.00 | 0.00 | 0.00 | 14 | 999.7 |
| 20260901004008 | 97 | 233 | 4.0 | 0.0 | 0.00 | 0.00 | 0.00 | 14 | 999.8 |
| 20260901003553 | 98 | 340 | 4.0 | 0.0 | 0.00 | 0.00 | 0.00 | 14 | 999.8 |
| 20260901003036 | 98 | 275 | 4.0 | 0.0 | 0.00 | 0.00 | 0.00 | 14 | 999.8 |
| 20260901002515 | 98 | 299 | 3.0 | 0.0 | 0.00 | 0.00 | 0.00 | 14 | 999.8 |
| 20260901002058 | 98 | 290 | 3.0 | 0.0 | 0.00 | 0.00 | 0.00 | 14 | 999.6 |
| 20260901001540 | 98 | 261 | 4.0 | 0.0 | 0.00 | 0.00 | 0.00 | 14 | 999.5 |
| 20260901001021 | 98 | 250 | 4.0 | 0.0 | 0.00 | 0.00 | 0.00 | 14 | 999.5 |
| 20260901000603 | 99 | 283 | 4.0 | 0.0 | 0.00 | 0.00 | 0.00 | 14 | 999.6 |
| 20260901000044 | 99 | 58 | 3.0 | 0.0 | 0.00 | 0.00 | 0.00 | 14 | 999.5 |
| 20260831235522 | 100 | 238 | 2.0 | 0.0 | 0.00 | 0.00 | 0.00 | 14 | 999.7 |
| 20260831235002 | 100 | 166 | 2.0 | 0.0 | 0.00 | 0.00 | 0.00 | 15 | 999.5 |
| 20260831234555 | 100 | 134 | 3.0 | 0.0 | 0.00 | 0.00 | 0.00 | 15 | 999.6 |
| 20260831234029 | 99 | 284 | 3.0 | 0.0 | 0.00 | 0.00 | 0.00 | 15 | 999.6 |
| 20260831233513 | 99 | 229 | 3.0 | 0.0 | 0.00 | 0.00 | 0.00 | 15 | 999.5 |
| 20260831233054 | 100 | 267 | 2.0 | 0.0 | 0.00 | 0.00 | 0.00 | 14 | 999.6 |
| 20260831232538 | 100 | 269 | 2.0 | 0.0 | 0.00 | 0.00 | 0.00 | 14 | 999.6 |
| 20260831232021 | 100 | 214 | 2.0 | 0.0 | 0.00 | 0.00 | 0.00 | 15 | 999.7 |
| 20260831231503 | 100 | 82 | 3.0 | 0.0 | 0.00 | 0.00 | 0.00 | 15 | 999.5 |
| 20260831231047 | 100 | 286 | 3.0 | 0.0 | 0.00 | 0.00 | 0.00 | 14 | 999.6 |
| 20260831230527 | 100 | 255 | 2.0 | 0.0 | 0.00 | 0.00 | 0.00 | 14 | 999.6 |
| 20260831230011 | 100 | 150 | 2.0 | 0.0 | 0.00 | 0.00 | 0.00 | 16 | 999.7 |
| 20260831225551 | 100 | 325 | 2.0 | 0.0 | 0.00 | 0.00 | 0.00 | 16 | 999.8 |
| 20260831225030 | 100 | 297 | 2.0 | 0.0 | 0.00 | 0.00 | 0.00 | 16 | 999.8 |
| 20260831224510 | 100 | 298 | 2.0 | 0.0 | 0.00 | 0.00 | 0.00 | 16 | 999.9 |
| 20260831224055 | 100 | 121 | 2.0 | 0.0 | 0.00 | 0.00 | 0.00 | 15 | 1000.0 |
| 20260831223532 | 100 | 67 | 2.0 | 0.0 | 0.00 | 0.00 | 0.00 | 16 | 1000.0 |
| 20260831223013 | 99 | 148 | 2.0 | 0.0 | 0.00 | 0.00 | 0.00 | 16 | 1000.0 |